Location: Risskov
(56.1972°N, 10.2480°E)
Time: 23:44:37
(UTC+00:00)

USA 215 - Pass Details

Date: 05 July 2020
Orbit: 1102 x 1106 km, 123.0° (Epoch: 08 August)

Event Time Altitude Azimuth Distance (km) Brightness Sun altitude
Rises 20:56:14 0° 63° (ENE) 3,928 6.1 -5.2°
Reaches altitude 10° 20:58:58 10° 72° (ENE) 2,967 5.4 -5.4°
Maximum altitude 21:04:57 37° 138° (SE) 1,647 3.7 -5.8°
Drops below altitude 10° 21:10:55 10° 204° (SSW) 2,955 5.2 -6.3°
Sets 21:13:37 0° 213° (SSW) 3,910 5.9 -6.5°
